Location: Newark
(39.5667°N, 8.9833°E)
Time: 23:32:59
(UTC+00:00)

Courier 1B Rocket - All Passes

Search period start: 21 October 2019 00:00
Search period end: 31 October 2019 00:00
Orbit: 920 x 1202 km, 28.2° (Epoch: 21 October)

Date Brightness Start Highest point End Pass type
(mag) Time Alt. Az. Time Alt. Az. Time Alt. Az.
21 Oct - 02:12:00 10° SSW 02:16:35 21° SSE 02:21:10 10° ESE visible
21 Oct - 04:03:53 10° WSW 04:09:10 29° S 04:14:34 10° ESE visible
21 Oct - 05:56:55 10° WSW 06:01:49 24° SSW 06:06:53 10° SE daylight
21 Oct - 07:52:23 10° SW 07:54:21 11° SSW 07:56:20 10° S daylight
22 Oct - 01:11:53 10° SSW 01:15:53 17° SSE 01:19:49 10° ESE visible
22 Oct - 03:03:13 10° SW 03:08:24 28° S 03:13:37 10° ESE visible
22 Oct - 04:55:57 10° WSW 05:01:03 27° S 05:06:17 10° SE visible
22 Oct - 06:50:06 10° SW 06:53:36 15° SSW 06:57:12 10° SSE daylight
23 Oct - 00:12:15 10° S 00:15:10 13° SSE 00:18:03 10° SE night (unlit)
23 Oct - 02:02:37 10° SW 02:07:40 25° S 02:12:39 10° ESE visible
23 Oct - 03:55:03 10° WSW 04:00:17 28° S 04:05:35 10° SE visible
23 Oct - 05:48:36 10° WSW 05:52:52 19° SSW 05:57:14 10° SSE daylight
24 Oct - 01:02:09 10° SW 01:06:56 22° SSE 01:11:35 10° ESE visible
24 Oct - 02:54:13 10° WSW 02:59:32 29° S 03:04:48 10° ESE visible
24 Oct - 04:47:23 10° WSW 04:52:08 23° SSW 04:56:56 10° SE visible
24 Oct - 06:43:46 10° SSW 06:44:35 10° SSW 06:45:24 10° SSW daylight
25 Oct - 00:01:53 10° SSW 00:06:11 18° SSE 00:10:21 10° ESE night (unlit)
25 Oct - 01:53:27 10° SW 01:58:46 28° S 02:03:59 10° ESE visible
25 Oct - 03:46:20 10° WSW 03:51:24 26° S 03:56:28 10° SE visible
25 Oct - 05:40:43 10° SW 05:43:53 14° SSW 05:47:05 10° S daylight
25 Oct - 23:02:00 10° S 23:05:26 14° SSE 23:08:46 10° SE night (unlit)
26 Oct - 00:52:43 10° SW 00:58:00 26° S 01:03:06 10° ESE night (unlit)
26 Oct - 02:45:21 10° WSW 02:50:39 28° S 02:55:52 10° SE visible
26 Oct - 04:39:04 10° WSW 04:43:11 18° SSW 04:47:20 10° SSE visible
26 Oct - 22:03:16 10° SSE 22:04:40 11° SSE 22:06:02 10° SE night (unlit)
26 Oct - 23:52:08 10° SW 23:57:13 23° SSE 00:02:06 10° ESE night (unlit)
27 Oct - 01:44:24 10° WSW 01:49:53 29° S 01:55:11 10° ESE visible
27 Oct - 03:37:44 10° WSW 03:42:29 22° SSW 03:47:10 10° SE visible
27 Oct - 22:51:43 10° SSW 22:56:25 20° SSE 23:00:56 10° ESE night (unlit)
28 Oct - 00:43:31 10° SW 00:49:05 29° S 00:54:27 10° ESE night (unlit)
28 Oct - 02:36:34 10° WSW 02:41:45 26° S 02:46:48 10° SE visible
28 Oct - 04:31:12 10° SW 04:34:11 14° SSW 04:37:10 10° S visible
28 Oct - 21:51:38 10° SSW 21:55:37 16° SSE 21:59:28 10° ESE night (unlit)
28 Oct - 23:42:40 10° SW 23:48:16 27° S 23:53:36 10° ESE night (unlit)
29 Oct - 01:35:28 10° WSW 01:40:58 29° S 01:46:17 10° SE visible
29 Oct - 03:29:22 10° WSW 03:33:30 18° SSW 03:37:36 10° SSE visible
29 Oct - 20:52:18 10° S 20:54:48 12° SSE 20:57:15 10° SE night (unlit)
29 Oct - 22:41:57 10° SW 22:47:26 25° SSE 22:52:39 10° ESE night (unlit)
30 Oct - 00:34:24 10° WSW 00:40:10 30° S 00:45:40 10° ESE night (unlit)
30 Oct - 02:27:55 10° WSW 02:32:48 23° SSW 02:37:33 10° SE visible
30 Oct - 21:41:25 10° SSW 21:46:35 21° SSE 21:51:30 10° ESE night (unlit)
30 Oct - 23:33:25 10° SW 23:39:20 30° S 23:44:57 10° ESE night (unlit)
